Location: Montreal
(45.5000°N, 73.5833°W)
Time: 03:16:43
(UTC-05:00)

OTV 5 (USA 277) - Pass Details

Date: 13 October 2017
Orbit: 404 x 417 km, 43.0° (Epoch: 07 September)

Event Time Altitude Azimuth Distance (km) Brightness Sun altitude
Rises 18:47:36 0° 236° (SW) 2,348 ? -7.0°
Reaches altitude 10° 18:49:50 10° 226° (SW) 1,487 ? -7.4°
Maximum altitude 18:52:52 32° 161° (SSE) 736 ? -8.0°
Enters shadow 18:55:43 11° 98° (E) 1,417 ? -8.5°
